Data supplied by UK-AIR on 25/3/2021
All Data GMT hour ending 
Status: R =Ratified P=Provisional,P*=As supplied
,,Coventry Binley Road,,,,,,,,,,,,,,,,,,,,,,,
Date,time,"PM<sub>10</sub> particulate matter (Hourly measured)",status,unit,"Nitric oxide",status,unit,"Nitrogen dioxide",status,unit,"Nitrogen oxides as nitrogen dioxide",status,unit
 
01-01-2020,01:00,59.904,R,ugm-3 (Ref.eq),16.65524,R,ugm-3,22.74575,R,ugm-3,48.28344,R,ugm-3
01-01-2020,02:00,32.851,R,ugm-3 (Ref.eq),16.21437,R,ugm-3,27.38309,R,ugm-3,52.24477,R,ugm-3
01-01-2020,03:00,33.817,R,ugm-3 (Ref.eq),14.91624,R,ugm-3,24.66477,R,ugm-3,47.53602,R,ugm-3
01-01-2020,04:00,36.716,R,ugm-3 (Ref.eq),15.90821,R,ugm-3,31.04776,R,ugm-3,55.44000,R,ugm-3
01-01-2020,05:00,36.716,R,ugm-3 (Ref.eq),14.87950,R,ugm-3,29.03746,R,ugm-3,51.85238,R,ugm-3
01-01-2020,06:00,38.648,R,ugm-3 (Ref.eq),7.67856,R,ugm-3,29.76434,R,ugm-3,41.53796,R,ugm-3
01-01-2020,07:00,39.614,R,ugm-3 (Ref.eq),7.78878,R,ugm-3,33.23902,R,ugm-3,45.18164,R,ugm-3
01-01-2020,08:00,43.479,R,ugm-3 (Ref.eq),14.95298,R,ugm-3,32.17608,R,ugm-3,55.10366,R,ugm-3
01-01-2020,09:00,41.547,R,ugm-3 (Ref.eq),9.03792,R,ugm-3,28.68903,R,ugm-3,42.54698,R,ugm-3
01-01-2020,10:00,28.986,R,ugm-3 (Ref.eq),6.72333,R,ugm-3,21.81148,R,ugm-3,32.12045,R,ugm-3
01-01-2020,11:00,29.952,R,ugm-3 (Ref.eq),10.36054,R,ugm-3,27.50188,R,ugm-3,43.38783,R,ugm-3
01-01-2020,12:00,38.648,R,ugm-3 (Ref.eq),20.79456,R,ugm-3,31.96394,R,ugm-3,63.84850,R,ugm-3
01-01-2020,13:00,38.648,R,ugm-3 (Ref.eq),22.88872,R,ugm-3,27.57577,R,ugm-3,62.67131,R,ugm-3
01-01-2020,14:00,28.986,R,ugm-3 (Ref.eq),22.70502,R,ugm-3,27.68926,R,ugm-3,62.50314,R,ugm-3
01-01-2020,15:00,28.020,R,ugm-3 (Ref.eq),22.04371,R,ugm-3,28.31086,R,ugm-3,62.11074,R,ugm-3
01-01-2020,16:00,28.020,R,ugm-3 (Ref.eq),21.97023,R,ugm-3,28.64775,R,ugm-3,62.33497,R,ugm-3
01-01-2020,17:00,20.290,R,ugm-3 (Ref.eq),14.73254,R,ugm-3,29.15068,R,ugm-3,51.74026,R,ugm-3
01-01-2020,18:00,19.324,R,ugm-3 (Ref.eq),17.30431,R,ugm-3,26.27244,R,ugm-3,52.80534,R,ugm-3
01-01-2020,19:00,23.189,R,ugm-3 (Ref.eq),15.39386,R,ugm-3,21.29777,R,ugm-3,44.90136,R,ugm-3
01-01-2020,20:00,35.749,R,ugm-3 (Ref.eq),18.77389,R,ugm-3,26.48560,R,ugm-3,55.27183,R,ugm-3
01-01-2020,21:00,37.682,R,ugm-3 (Ref.eq),16.82670,R,ugm-3,24.37011,R,ugm-3,50.17068,R,ugm-3
01-01-2020,22:00,36.716,R,ugm-3 (Ref.eq),10.98511,R,ugm-3,20.37799,R,ugm-3,37.22160,R,ugm-3
01-01-2020,23:00,32.851,R,ugm-3 (Ref.eq),7.86226,R,ugm-3,16.64570,R,ugm-3,28.70099,R,ugm-3
01-01-2020,24:00,32.851,R,ugm-3 (Ref.eq),6.50289,R,ugm-3,16.09537,R,ugm-3,26.06633,R,ugm-3
02-01-2020,01:00,22.223,R,ugm-3 (Ref.eq),3.04195,R,ugm-3,10.14638,R,ugm-3,14.81063,R,ugm-3
02-01-2020,02:00,16.425,R,ugm-3 (Ref.eq),2.01161,R,ugm-3,9.40737,R,ugm-3,12.49179,R,ugm-3
02-01-2020,03:00,12.561,R,ugm-3 (Ref.eq),1.21433,R,ugm-3,6.88980,R,ugm-3,8.75173,R,ugm-3
02-01-2020,04:00,9.662,R,ugm-3 (Ref.eq),0.88315,R,ugm-3,6.72439,R,ugm-3,8.07852,R,ugm-3
02-01-2020,05:00,11.594,R,ugm-3 (Ref.eq),1.43511,R,ugm-3,7.61718,R,ugm-3,9.81765,R,ugm-3
02-01-2020,06:00,8.696,R,ugm-3 (Ref.eq),3.16461,R,ugm-3,11.58523,R,ugm-3,16.43755,R,ugm-3
02-01-2020,07:00,8.696,R,ugm-3 (Ref.eq),8.42668,R,ugm-3,16.98102,R,ugm-3,29.90176,R,ugm-3
02-01-2020,08:00,8.696,R,ugm-3 (Ref.eq),10.41376,R,ugm-3,16.17825,R,ugm-3,32.14580,R,ugm-3
02-01-2020,09:00,10.628,R,ugm-3 (Ref.eq),12.18005,R,ugm-3,24.97065,R,ugm-3,43.64647,R,ugm-3
02-01-2020,10:00,9.662,R,ugm-3 (Ref.eq),8.46348,R,ugm-3,17.65392,R,ugm-3,30.63107,R,ugm-3
02-01-2020,11:00,13.527,R,ugm-3 (Ref.eq),9.34663,R,ugm-3,14.61675,R,ugm-3,28.94805,R,ugm-3
02-01-2020,12:00,17.392,R,ugm-3 (Ref.eq),10.37697,R,ugm-3,19.54462,R,ugm-3,35.45575,R,ugm-3
02-01-2020,13:00,13.527,R,ugm-3 (Ref.eq),11.48090,R,ugm-3,17.51534,R,ugm-3,35.11914,R,ugm-3
02-01-2020,14:00,15.459,R,ugm-3 (Ref.eq),11.62809,R,ugm-3,20.37520,R,ugm-3,38.20469,R,ugm-3
02-01-2020,15:00,15.459,R,ugm-3 (Ref.eq),11.55449,R,ugm-3,23.91020,R,ugm-3,41.62684,R,ugm-3
02-01-2020,16:00,20.290,R,ugm-3 (Ref.eq),11.84887,R,ugm-3,22.89781,R,ugm-3,41.06583,R,ugm-3
02-01-2020,17:00,13.527,R,ugm-3 (Ref.eq),11.55449,R,ugm-3,19.30993,R,ugm-3,37.02657,R,ugm-3
02-01-2020,18:00,17.392,R,ugm-3 (Ref.eq),12.36404,R,ugm-3,18.57354,R,ugm-3,37.53148,R,ugm-3
02-01-2020,19:00,15.459,R,ugm-3 (Ref.eq),14.90309,R,ugm-3,27.80800,R,ugm-3,50.65908,R,ugm-3
02-01-2020,20:00,13.527,R,ugm-3 (Ref.eq),9.89859,R,ugm-3,25.83210,R,ugm-3,41.00973,R,ugm-3
02-01-2020,21:00,9.662,R,ugm-3 (Ref.eq),9.23623,R,ugm-3,12.37368,R,ugm-3,26.53571,R,ugm-3
02-01-2020,22:00,6.763,R,ugm-3 (Ref.eq),7.28595,R,ugm-3,12.95173,R,ugm-3,24.12337,R,ugm-3
02-01-2020,23:00,10.628,R,ugm-3 (Ref.eq),5.11489,R,ugm-3,9.15585,R,ugm-3,16.99856,R,ugm-3
02-01-2020,24:00,7.730,R,ugm-3 (Ref.eq),4.04775,R,ugm-3,9.33347,R,ugm-3,15.53994,R,ugm-3
03-01-2020,01:00,4.831,R,ugm-3 (Ref.eq),2.26050,R,ugm-3,7.31381,R,ugm-3,10.77986,R,ugm-3
03-01-2020,02:00,1.932,R,ugm-3 (Ref.eq),2.70277,R,ugm-3,10.00437,R,ugm-3,14.14857,R,ugm-3
03-01-2020,03:00,2.899,R,ugm-3 (Ref.eq),1.17939,R,ugm-3,5.71507,R,ugm-3,7.52344,R,ugm-3
03-01-2020,04:00,2.899,R,ugm-3 (Ref.eq),2.87477,R,ugm-3,9.06691,R,ugm-3,13.47483,R,ugm-3
03-01-2020,05:00,1.932,R,ugm-3 (Ref.eq),1.03197,R,ugm-3,5.77268,R,ugm-3,7.35501,R,ugm-3
03-01-2020,06:00,10.628,R,ugm-3 (Ref.eq),10.13540,R,ugm-3,15.17065,R,ugm-3,30.71137,R,ugm-3
03-01-2020,07:00,15.459,R,ugm-3 (Ref.eq),7.59233,R,ugm-3,18.45236,R,ugm-3,30.09378,R,ugm-3
03-01-2020,08:00,16.425,R,ugm-3 (Ref.eq),9.61941,R,ugm-3,28.98748,R,ugm-3,43.73704,R,ugm-3
03-01-2020,09:00,17.392,R,ugm-3 (Ref.eq),9.02972,R,ugm-3,23.32269,R,ugm-3,37.16806,R,ugm-3
03-01-2020,10:00,17.392,R,ugm-3 (Ref.eq),8.36631,R,ugm-3,24.90135,R,ugm-3,37.72951,R,ugm-3
03-01-2020,11:00,21.256,R,ugm-3 (Ref.eq),13.59986,R,ugm-3,28.72330,R,ugm-3,49.57613,R,ugm-3
03-01-2020,12:00,17.392,R,ugm-3 (Ref.eq),13.71043,R,ugm-3,26.36411,R,ugm-3,47.38647,R,ugm-3
03-01-2020,13:00,21.256,R,ugm-3 (Ref.eq),14.70554,R,ugm-3,23.09779,R,ugm-3,45.64597,R,ugm-3
03-01-2020,14:00,20.290,R,ugm-3 (Ref.eq),13.96842,R,ugm-3,28.21433,R,ugm-3,49.63227,R,ugm-3
03-01-2020,15:00,28.020,R,ugm-3 (Ref.eq),22.77700,R,ugm-3,38.62584,R,ugm-3,73.55008,R,ugm-3
03-01-2020,16:00,31.885,R,ugm-3 (Ref.eq),30.25876,R,ugm-3,43.32376,R,ugm-3,89.71987,R,ugm-3
03-01-2020,17:00,36.716,R,ugm-3 (Ref.eq),46.62282,R,ugm-3,64.66455,R,ugm-3,136.15187,R,ugm-3
03-01-2020,18:00,40.580,R,ugm-3 (Ref.eq),66.85675,R,ugm-3,87.87579,R,ugm-3,190.38804,R,ugm-3
03-01-2020,19:00,41.547,R,ugm-3 (Ref.eq),52.74091,R,ugm-3,76.39417,R,ugm-3,157.26243,R,ugm-3
03-01-2020,20:00,25.121,R,ugm-3 (Ref.eq),52.22493,R,ugm-3,75.05182,R,ugm-3,155.12892,R,ugm-3
03-01-2020,21:00,27.054,R,ugm-3 (Ref.eq),42.82665,R,ugm-3,48.81325,R,ugm-3,114.47986,R,ugm-3
03-01-2020,22:00,26.087,R,ugm-3 (Ref.eq),29.89020,R,ugm-3,40.91318,R,ugm-3,86.74418,R,ugm-3
03-01-2020,23:00,23.189,R,ugm-3 (Ref.eq),30.99588,R,ugm-3,48.08876,R,ugm-3,95.61511,R,ugm-3
03-01-2020,24:00,23.189,R,ugm-3 (Ref.eq),14.00527,R,ugm-3,35.62512,R,ugm-3,57.09957,R,ugm-3
04-01-2020,01:00,17.392,R,ugm-3 (Ref.eq),4.52814,R,ugm-3,27.22006,R,ugm-3,34.16312,R,ugm-3
04-01-2020,02:00,7.730,R,ugm-3 (Ref.eq),5.51252,R,ugm-3,15.44678,R,ugm-3,23.89920,R,ugm-3
04-01-2020,03:00,9.662,R,ugm-3 (Ref.eq),2.10411,R,ugm-3,11.55154,R,ugm-3,14.77780,R,ugm-3
04-01-2020,04:00,7.730,R,ugm-3 (Ref.eq),2.25177,R,ugm-3,7.72902,R,ugm-3,11.18168,R,ugm-3
04-01-2020,05:00,6.763,R,ugm-3 (Ref.eq),5.53713,R,ugm-3,10.95136,R,ugm-3,19.44151,R,ugm-3
04-01-2020,06:00,7.730,R,ugm-3 (Ref.eq),5.98010,R,ugm-3,13.13781,R,ugm-3,22.30717,R,ugm-3
04-01-2020,07:00,7.730,R,ugm-3 (Ref.eq),13.21529,R,ugm-3,20.36173,R,ugm-3,40.62490,R,ugm-3
04-01-2020,08:00,8.696,R,ugm-3 (Ref.eq),10.52055,R,ugm-3,23.08887,R,ugm-3,39.22016,R,ugm-3
04-01-2020,09:00,12.561,R,ugm-3 (Ref.eq),19.12156,R,ugm-3,33.50036,R,ugm-3,62.81968,R,ugm-3
04-01-2020,10:00,15.459,R,ugm-3 (Ref.eq),27.50109,R,ugm-3,47.34187,R,ugm-3,89.50962,R,ugm-3
04-01-2020,11:00,11.594,R,ugm-3 (Ref.eq),25.50772,R,ugm-3,44.32987,R,ugm-3,83.44117,R,ugm-3
04-01-2020,12:00,12.561,R,ugm-3 (Ref.eq),32.96440,R,ugm-3,54.86650,R,ugm-3,105.41120,R,ugm-3
04-01-2020,13:00,10.628,R,ugm-3 (Ref.eq),29.08840,R,ugm-3,37.77198,R,ugm-3,82.37357,R,ugm-3
04-01-2020,14:00,7.730,R,ugm-3 (Ref.eq),31.45091,R,ugm-3,38.86942,R,ugm-3,87.09348,R,ugm-3
04-01-2020,15:00,11.594,R,ugm-3 (Ref.eq),35.73296,R,ugm-3,51.35189,R,ugm-3,106.14167,R,ugm-3
04-01-2020,16:00,18.358,R,ugm-3 (Ref.eq),33.14897,R,ugm-3,43.40182,R,ugm-3,94.22953,R,ugm-3
04-01-2020,17:00,9.662,R,ugm-3 (Ref.eq),42.56209,R,ugm-3,53.12998,R,ugm-3,118.39094,R,ugm-3
04-01-2020,18:00,9.662,R,ugm-3 (Ref.eq),33.44428,R,ugm-3,47.33178,R,ugm-3,98.61229,R,ugm-3
04-01-2020,19:00,14.493,R,ugm-3 (Ref.eq),38.13239,R,ugm-3,58.34880,R,ugm-3,116.81764,R,ugm-3
04-01-2020,20:00,12.561,R,ugm-3 (Ref.eq),41.30701,R,ugm-3,53.08779,R,ugm-3,116.42432,R,ugm-3
04-01-2020,21:00,14.493,R,ugm-3 (Ref.eq),26.28292,R,ugm-3,43.64696,R,ugm-3,83.94688,R,ugm-3
04-01-2020,22:00,18.358,R,ugm-3 (Ref.eq),34.84702,R,ugm-3,53.55315,R,ugm-3,106.98451,R,ugm-3
04-01-2020,23:00,16.425,R,ugm-3 (Ref.eq),26.79972,R,ugm-3,44.82117,R,ugm-3,85.91350,R,ugm-3
04-01-2020,24:00,12.561,R,ugm-3 (Ref.eq),21.04110,R,ugm-3,33.25420,R,ugm-3,65.51677,R,ugm-3
05-01-2020,01:00,10.628,R,ugm-3 (Ref.eq),13.45797,R,ugm-3,25.55125,R,ugm-3,46.18651,R,ugm-3
05-01-2020,02:00,12.561,R,ugm-3 (Ref.eq),8.13394,R,ugm-3,13.39558,R,ugm-3,25.86745,R,ugm-3
05-01-2020,03:00,9.662,R,ugm-3 (Ref.eq),4.88036,R,ugm-3,11.91747,R,ugm-3,19.40059,R,ugm-3
05-01-2020,04:00,10.628,R,ugm-3 (Ref.eq),3.77119,R,ugm-3,9.85052,R,ugm-3,15.63294,R,ugm-3
05-01-2020,05:00,6.763,R,ugm-3 (Ref.eq),2.66202,R,ugm-3,7.55865,R,ugm-3,11.64035,R,ugm-3
05-01-2020,06:00,3.865,R,ugm-3 (Ref.eq),3.69725,R,ugm-3,6.92729,R,ugm-3,12.59632,R,ugm-3
05-01-2020,07:00,4.831,R,ugm-3 (Ref.eq),3.29055,R,ugm-3,8.22569,R,ugm-3,13.27112,R,ugm-3
05-01-2020,08:00,3.865,R,ugm-3 (Ref.eq),3.91908,R,ugm-3,11.53571,R,ugm-3,17.54488,R,ugm-3
05-01-2020,09:00,2.899,R,ugm-3 (Ref.eq),5.32403,R,ugm-3,12.69925,R,ugm-3,20.86266,R,ugm-3
05-01-2020,10:00,3.865,R,ugm-3 (Ref.eq),7.17266,R,ugm-3,13.40746,R,ugm-3,24.40537,R,ugm-3
05-01-2020,11:00,7.730,R,ugm-3 (Ref.eq),12.53366,R,ugm-3,16.09668,R,ugm-3,35.31469,R,ugm-3
05-01-2020,12:00,10.628,R,ugm-3 (Ref.eq),14.27137,R,ugm-3,21.64233,R,ugm-3,43.52479,R,ugm-3
05-01-2020,13:00,6.763,R,ugm-3 (Ref.eq),20.22393,R,ugm-3,26.68606,R,ugm-3,57.69565,R,ugm-3
05-01-2020,14:00,9.662,R,ugm-3 (Ref.eq),22.99686,R,ugm-3,30.98179,R,ugm-3,66.24316,R,ugm-3
05-01-2020,15:00,11.594,R,ugm-3 (Ref.eq),19.85421,R,ugm-3,30.90814,R,ugm-3,61.35084,R,ugm-3
05-01-2020,16:00,8.696,R,ugm-3 (Ref.eq),21.44402,R,ugm-3,37.58030,R,ugm-3,70.46068,R,ugm-3
05-01-2020,17:00,13.527,R,ugm-3 (Ref.eq),17.45100,R,ugm-3,28.46355,R,ugm-3,55.22138,R,ugm-3
05-01-2020,18:00,17.392,R,ugm-3 (Ref.eq),19.59540,R,ugm-3,30.06784,R,ugm-3,60.11370,R,ugm-3
05-01-2020,19:00,16.425,R,ugm-3 (Ref.eq),16.37880,R,ugm-3,35.28106,R,ugm-3,60.39486,R,ugm-3
05-01-2020,20:00,13.527,R,ugm-3 (Ref.eq),19.81724,R,ugm-3,22.52980,R,ugm-3,52.91580,R,ugm-3
05-01-2020,21:00,14.493,R,ugm-3 (Ref.eq),11.05476,R,ugm-3,19.26403,R,ugm-3,36.21443,R,ugm-3
05-01-2020,22:00,20.290,R,ugm-3 (Ref.eq),13.86467,R,ugm-3,20.46645,R,ugm-3,41.72532,R,ugm-3
05-01-2020,23:00,19.324,R,ugm-3 (Ref.eq),10.20440,R,ugm-3,22.25491,R,ugm-3,37.90143,R,ugm-3
05-01-2020,24:00,12.561,R,ugm-3 (Ref.eq),3.43844,R,ugm-3,11.20424,R,ugm-3,16.47644,R,ugm-3
06-01-2020,01:00,7.730,R,ugm-3 (Ref.eq),2.46871,R,ugm-3,6.11959,R,ugm-3,9.90490,R,ugm-3
06-01-2020,02:00,6.763,R,ugm-3 (Ref.eq),0.98749,R,ugm-3,2.98810,R,ugm-3,4.50223,R,ugm-3
06-01-2020,03:00,9.662,R,ugm-3 (Ref.eq),0.92577,R,ugm-3,4.65852,R,ugm-3,6.07801,R,ugm-3
06-01-2020,04:00,10.628,R,ugm-3 (Ref.eq),1.37014,R,ugm-3,5.89061,R,ugm-3,7.99145,R,ugm-3
06-01-2020,05:00,8.696,R,ugm-3 (Ref.eq),1.66638,R,ugm-3,4.70476,R,ugm-3,7.25984,R,ugm-3
06-01-2020,06:00,11.594,R,ugm-3 (Ref.eq),4.44368,R,ugm-3,7.76240,R,ugm-3,14.57595,R,ugm-3
06-01-2020,07:00,20.290,R,ugm-3 (Ref.eq),6.03600,R,ugm-3,14.04394,R,ugm-3,23.29902,R,ugm-3
06-01-2020,08:00,17.392,R,ugm-3 (Ref.eq),13.25699,R,ugm-3,23.79472,R,ugm-3,44.12181,R,ugm-3
06-01-2020,09:00,24.155,R,ugm-3 (Ref.eq),19.21893,R,ugm-3,31.98677,R,ugm-3,61.45538,R,ugm-3
06-01-2020,10:00,16.425,R,ugm-3 (Ref.eq),14.84931,R,ugm-3,18.08908,R,ugm-3,40.85770,R,ugm-3
06-01-2020,11:00,13.527,R,ugm-3 (Ref.eq),10.59078,R,ugm-3,17.47145,R,ugm-3,33.71041,R,ugm-3
06-01-2020,12:00,19.324,R,ugm-3 (Ref.eq),15.96023,R,ugm-3,21.90092,R,ugm-3,46.37292,R,ugm-3
06-01-2020,13:00,20.290,R,ugm-3 (Ref.eq),18.58941,R,ugm-3,27.54935,R,ugm-3,56.05271,R,ugm-3
06-01-2020,14:00,21.256,R,ugm-3 (Ref.eq),20.10766,R,ugm-3,26.96600,R,ugm-3,57.79732,R,ugm-3
06-01-2020,15:00,15.459,R,ugm-3 (Ref.eq),20.47797,R,ugm-3,32.36365,R,ugm-3,63.76277,R,ugm-3
06-01-2020,16:00,,,,,,,,,,,,
06-01-2020,17:00,16.425,R,ugm-3 (Ref.eq),24.19338,R,ugm-3,48.07110,R,ugm-3,85.16710,R,ugm-3
06-01-2020,18:00,9.662,R,ugm-3 (Ref.eq),27.99520,R,ugm-3,38.28352,R,ugm-3,81.20889,R,ugm-3
06-01-2020,19:00,12.561,R,ugm-3 (Ref.eq),33.25356,R,ugm-3,38.71877,R,ugm-3,89.70684,R,ugm-3
06-01-2020,20:00,28.986,R,ugm-3 (Ref.eq),40.65969,R,ugm-3,50.21164,R,ugm-3,112.55564,R,ugm-3
06-01-2020,21:00,20.290,R,ugm-3 (Ref.eq),47.54740,R,ugm-3,53.66382,R,ugm-3,126.56882,R,ugm-3
06-01-2020,22:00,15.459,R,ugm-3 (Ref.eq),25.47711,R,ugm-3,41.58175,R,ugm-3,80.64611,R,ugm-3
06-01-2020,23:00,21.256,R,ugm-3 (Ref.eq),17.88582,R,ugm-3,20.97438,R,ugm-3,48.39892,R,ugm-3
06-01-2020,24:00,19.324,R,ugm-3 (Ref.eq),9.40580,R,ugm-3,18.55679,R,ugm-3,32.97880,R,ugm-3
07-01-2020,01:00,19.324,R,ugm-3 (Ref.eq),5.94123,R,ugm-3,10.30599,R,ugm-3,19.41574,R,ugm-3
07-01-2020,02:00,12.561,R,ugm-3 (Ref.eq),4.45592,R,ugm-3,9.94951,R,ugm-3,16.78182,R,ugm-3
07-01-2020,03:00,16.425,R,ugm-3 (Ref.eq),2.45076,R,ugm-3,8.71571,R,ugm-3,12.47349,R,ugm-3
07-01-2020,04:00,15.459,R,ugm-3 (Ref.eq),6.98094,R,ugm-3,15.93625,R,ugm-3,26.64021,R,ugm-3
07-01-2020,05:00,25.121,R,ugm-3 (Ref.eq),4.04746,R,ugm-3,19.75689,R,ugm-3,25.96291,R,ugm-3
07-01-2020,06:00,23.189,R,ugm-3 (Ref.eq),7.76073,R,ugm-3,17.78841,R,ugm-3,29.68802,R,ugm-3
07-01-2020,07:00,23.189,R,ugm-3 (Ref.eq),13.40489,R,ugm-3,25.95360,R,ugm-3,46.50748,R,ugm-3
07-01-2020,08:00,17.392,R,ugm-3 (Ref.eq),23.46784,R,ugm-3,34.79363,R,ugm-3,70.77715,R,ugm-3
07-01-2020,09:00,23.189,R,ugm-3 (Ref.eq),35.05323,R,ugm-3,43.27473,R,ugm-3,97.02227,R,ugm-3
07-01-2020,10:00,22.223,R,ugm-3 (Ref.eq),36.61281,R,ugm-3,41.50427,R,ugm-3,97.64312,R,ugm-3
07-01-2020,11:00,25.121,R,ugm-3 (Ref.eq),33.45653,R,ugm-3,39.90954,R,ugm-3,91.20884,R,ugm-3
07-01-2020,12:00,31.885,R,ugm-3 (Ref.eq),16.07844,R,ugm-3,26.42594,R,ugm-3,51.07921,R,ugm-3
07-01-2020,13:00,25.121,R,ugm-3 (Ref.eq),21.35128,R,ugm-3,31.60469,R,ugm-3,64.34287,R,ugm-3
07-01-2020,14:00,27.054,R,ugm-3 (Ref.eq),17.71228,R,ugm-3,31.99184,R,ugm-3,59.15029,R,ugm-3
07-01-2020,15:00,15.459,R,ugm-3 (Ref.eq),17.74941,R,ugm-3,28.09690,R,ugm-3,55.31229,R,ugm-3
07-01-2020,16:00,10.628,R,ugm-3 (Ref.eq),18.67773,R,ugm-3,25.20604,R,ugm-3,53.84482,R,ugm-3
07-01-2020,17:00,8.696,R,ugm-3 (Ref.eq),13.99901,R,ugm-3,24.59109,R,ugm-3,46.05595,R,ugm-3
07-01-2020,18:00,5.797,R,ugm-3 (Ref.eq),9.72876,R,ugm-3,21.93883,R,ugm-3,36.85605,R,ugm-3
07-01-2020,19:00,6.763,R,ugm-3 (Ref.eq),7.01807,R,ugm-3,14.41184,R,ugm-3,25.17274,R,ugm-3
07-01-2020,20:00,6.763,R,ugm-3 (Ref.eq),8.24345,R,ugm-3,11.62990,R,ugm-3,24.26968,R,ugm-3
07-01-2020,21:00,4.831,R,ugm-3 (Ref.eq),5.56990,R,ugm-3,14.26182,R,ugm-3,22.80221,R,ugm-3
07-01-2020,22:00,5.797,R,ugm-3 (Ref.eq),7.76073,R,ugm-3,10.28174,R,ugm-3,22.18136,R,ugm-3
07-01-2020,23:00,3.865,R,ugm-3 (Ref.eq),4.93864,R,ugm-3,7.38441,R,ugm-3,14.95690,R,ugm-3
07-01-2020,24:00,0.966,R,ugm-3 (Ref.eq),2.19083,R,ugm-3,6.91306,R,ugm-3,10.27228,R,ugm-3
08-01-2020,01:00,0.966,R,ugm-3 (Ref.eq),1.63832,R,ugm-3,5.18614,R,ugm-3,7.69820,R,ugm-3
08-01-2020,02:00,1.932,R,ugm-3 (Ref.eq),1.63832,R,ugm-3,4.43141,R,ugm-3,6.94347,R,ugm-3
08-01-2020,03:00,1.932,R,ugm-3 (Ref.eq),1.22874,R,ugm-3,4.51225,R,ugm-3,6.39630,R,ugm-3
08-01-2020,04:00,1.932,R,ugm-3 (Ref.eq),2.27131,R,ugm-3,5.34766,R,ugm-3,8.83029,R,ugm-3
08-01-2020,05:00,10.628,R,ugm-3 (Ref.eq),3.16494,R,ugm-3,6.63785,R,ugm-3,11.49069,R,ugm-3
08-01-2020,06:00,14.493,R,ugm-3 (Ref.eq),7.03735,R,ugm-3,12.87019,R,ugm-3,23.66064,R,ugm-3
08-01-2020,07:00,23.189,R,ugm-3 (Ref.eq),12.02679,R,ugm-3,20.38980,R,ugm-3,38.83062,R,ugm-3
08-01-2020,08:00,30.918,R,ugm-3 (Ref.eq),22.93654,R,ugm-3,35.58664,R,ugm-3,70.75551,R,ugm-3
08-01-2020,09:00,36.716,R,ugm-3 (Ref.eq),45.20285,R,ugm-3,55.16301,R,ugm-3,124.47309,R,ugm-3
08-01-2020,10:00,39.614,R,ugm-3 (Ref.eq),36.78782,R,ugm-3,55.32989,R,ugm-3,111.73709,R,ugm-3
08-01-2020,11:00,34.783,R,ugm-3 (Ref.eq),37.01123,R,ugm-3,50.96842,R,ugm-3,107.71818,R,ugm-3
08-01-2020,12:00,37.682,R,ugm-3 (Ref.eq),36.75059,R,ugm-3,47.51897,R,ugm-3,103.86908,R,ugm-3
08-01-2020,13:00,37.682,R,ugm-3 (Ref.eq),27.21852,R,ugm-3,45.83253,R,ugm-3,87.56701,R,ugm-3
08-01-2020,14:00,35.749,R,ugm-3 (Ref.eq),34.55374,R,ugm-3,50.83081,R,ugm-3,103.81248,R,ugm-3
08-01-2020,15:00,41.547,R,ugm-3 (Ref.eq),39.02190,R,ugm-3,60.79124,R,ugm-3,120.62399,R,ugm-3
08-01-2020,16:00,41.547,R,ugm-3 (Ref.eq),52.20296,R,ugm-3,69.84504,R,ugm-3,149.88846,R,ugm-3
08-01-2020,17:00,41.547,R,ugm-3 (Ref.eq),52.31467,R,ugm-3,72.90021,R,ugm-3,153.11491,R,ugm-3
08-01-2020,18:00,41.547,R,ugm-3 (Ref.eq),60.95310,R,ugm-3,83.76827,R,ugm-3,177.22839,R,ugm-3
08-01-2020,19:00,22.223,R,ugm-3 (Ref.eq),31.68668,R,ugm-3,48.66081,R,ugm-3,97.24637,R,ugm-3
08-01-2020,20:00,25.121,R,ugm-3 (Ref.eq),32.76648,R,ugm-3,53.68445,R,ugm-3,103.92569,R,ugm-3
08-01-2020,21:00,18.358,R,ugm-3 (Ref.eq),33.13883,R,ugm-3,47.84932,R,ugm-3,98.66148,R,ugm-3
08-01-2020,22:00,16.425,R,ugm-3 (Ref.eq),13.73958,R,ugm-3,29.59388,R,ugm-3,50.66094,R,ugm-3
08-01-2020,23:00,11.594,R,ugm-3 (Ref.eq),7.33522,R,ugm-3,24.69661,R,ugm-3,35.94380,R,ugm-3
08-01-2020,24:00,14.493,R,ugm-3 (Ref.eq),3.42559,R,ugm-3,20.55912,R,ugm-3,25.81161,R,ugm-3
09-01-2020,01:00,6.763,R,ugm-3 (Ref.eq),2.78780,R,ugm-3,23.20100,R,ugm-3,27.47557,R,ugm-3
09-01-2020,02:00,4.831,R,ugm-3 (Ref.eq),1.34412,R,ugm-3,9.51966,R,ugm-3,11.58061,R,ugm-3
09-01-2020,03:00,2.899,R,ugm-3 (Ref.eq),1.68015,R,ugm-3,6.62018,R,ugm-3,9.19637,R,ugm-3
09-01-2020,04:00,4.831,R,ugm-3 (Ref.eq),0.44804,R,ugm-3,3.05968,R,ugm-3,3.74667,R,ugm-3
09-01-2020,05:00,4.831,R,ugm-3 (Ref.eq),0.85874,R,ugm-3,3.11116,R,ugm-3,4.42788,R,ugm-3
09-01-2020,06:00,0.966,R,ugm-3 (Ref.eq),3.06160,R,ugm-3,6.14824,R,ugm-3,10.84263,R,ugm-3
09-01-2020,07:00,3.865,R,ugm-3 (Ref.eq),7.16863,R,ugm-3,10.29614,R,ugm-3,21.28789,R,ugm-3
09-01-2020,08:00,7.730,R,ugm-3 (Ref.eq),8.51275,R,ugm-3,12.26569,R,ugm-3,25.31839,R,ugm-3
09-01-2020,09:00,16.425,R,ugm-3 (Ref.eq),17.36153,R,ugm-3,18.05554,R,ugm-3,44.67618,R,ugm-3
09-01-2020,10:00,17.392,R,ugm-3 (Ref.eq),13.81455,R,ugm-3,18.38508,R,ugm-3,39.56709,R,ugm-3
09-01-2020,11:00,18.358,R,ugm-3 (Ref.eq),15.04666,R,ugm-3,21.83203,R,ugm-3,44.90325,R,ugm-3
09-01-2020,12:00,24.155,R,ugm-3 (Ref.eq),23.70875,R,ugm-3,24.10469,R,ugm-3,60.45760,R,ugm-3
09-01-2020,13:00,27.054,R,ugm-3 (Ref.eq),24.60483,R,ugm-3,31.01880,R,ugm-3,68.74568,R,ugm-3
09-01-2020,14:00,21.256,R,ugm-3 (Ref.eq),30.09331,R,ugm-3,32.14022,R,ugm-3,78.28265,R,ugm-3
09-01-2020,15:00,27.054,R,ugm-3 (Ref.eq),32.37084,R,ugm-3,40.22866,R,ugm-3,89.86326,R,ugm-3
09-01-2020,16:00,28.986,R,ugm-3 (Ref.eq),37.03792,R,ugm-3,51.74915,R,ugm-3,108.53984,R,ugm-3
09-01-2020,17:00,19.324,R,ugm-3 (Ref.eq),18.10826,R,ugm-3,47.33806,R,ugm-3,75.10366,R,ugm-3
09-01-2020,18:00,16.425,R,ugm-3 (Ref.eq),6.42190,R,ugm-3,35.73769,R,ugm-3,45.58446,R,ugm-3
09-01-2020,19:00,17.392,R,ugm-3 (Ref.eq),4.96577,R,ugm-3,30.42028,R,ugm-3,38.03436,R,ugm-3
09-01-2020,20:00,20.290,R,ugm-3 (Ref.eq),8.69943,R,ugm-3,34.74330,R,ugm-3,48.08224,R,ugm-3
09-01-2020,21:00,11.594,R,ugm-3 (Ref.eq),10.11822,R,ugm-3,37.10927,R,ugm-3,52.62365,R,ugm-3
09-01-2020,22:00,19.324,R,ugm-3 (Ref.eq),2.80025,R,ugm-3,22.89808,R,ugm-3,27.19173,R,ugm-3
09-01-2020,23:00,17.392,R,ugm-3 (Ref.eq),4.14436,R,ugm-3,18.39611,R,ugm-3,24.75072,R,ugm-3
09-01-2020,24:00,17.392,R,ugm-3 (Ref.eq),4.85376,R,ugm-3,19.12495,R,ugm-3,26.56728,R,ugm-3
10-01-2020,01:00,21.256,R,ugm-3 (Ref.eq),2.69558,R,ugm-3,19.09468,R,ugm-3,23.22784,R,ugm-3
10-01-2020,02:00,14.493,R,ugm-3 (Ref.eq),1.19804,R,ugm-3,14.48326,R,ugm-3,16.32022,R,ugm-3
10-01-2020,03:00,10.628,R,ugm-3 (Ref.eq),2.13400,R,ugm-3,13.40869,R,ugm-3,16.68078,R,ugm-3
10-01-2020,04:00,5.797,R,ugm-3 (Ref.eq),0.63646,R,ugm-3,6.14049,R,ugm-3,7.11637,R,ugm-3
10-01-2020,05:00,1.932,R,ugm-3 (Ref.eq),1.27291,R,ugm-3,10.62998,R,ugm-3,12.58175,R,ugm-3
10-01-2020,06:00,8.696,R,ugm-3 (Ref.eq),2.39607,R,ugm-3,13.40537,R,ugm-3,17.07930,R,ugm-3
10-01-2020,07:00,5.797,R,ugm-3 (Ref.eq),7.67491,R,ugm-3,20.51184,R,ugm-3,32.27987,R,ugm-3
10-01-2020,08:00,13.527,R,ugm-3 (Ref.eq),29.91343,R,ugm-3,52.56706,R,ugm-3,98.43368,R,ugm-3
10-01-2020,09:00,17.392,R,ugm-3 (Ref.eq),73.97865,R,ugm-3,76.83101,R,ugm-3,190.26337,R,ugm-3
10-01-2020,10:00,26.087,R,ugm-3 (Ref.eq),74.57767,R,ugm-3,78.92988,R,ugm-3,193.28071,R,ugm-3
10-01-2020,11:00,31.885,R,ugm-3 (Ref.eq),71.09588,R,ugm-3,72.08531,R,ugm-3,181.09748,R,ugm-3
10-01-2020,12:00,29.952,R,ugm-3 (Ref.eq),46.53617,R,ugm-3,59.58682,R,ugm-3,130.94128,R,ugm-3
10-01-2020,13:00,27.054,R,ugm-3 (Ref.eq),46.19922,R,ugm-3,46.21230,R,ugm-3,117.05011,R,ugm-3
10-01-2020,14:00,27.054,R,ugm-3 (Ref.eq),54.62290,R,ugm-3,58.00421,R,ugm-3,141.75816,R,ugm-3
10-01-2020,15:00,31.885,R,ugm-3 (Ref.eq),42.90462,R,ugm-3,55.13525,R,ugm-3,120.92142,R,ugm-3
10-01-2020,16:00,37.682,R,ugm-3 (Ref.eq),56.98153,R,ugm-3,61.44714,R,ugm-3,148.81761,R,ugm-3
10-01-2020,17:00,29.952,R,ugm-3 (Ref.eq),55.44655,R,ugm-3,74.10526,R,ugm-3,159.12212,R,ugm-3
10-01-2020,18:00,28.986,R,ugm-3 (Ref.eq),54.17364,R,ugm-3,71.44562,R,ugm-3,154.51071,R,ugm-3
10-01-2020,19:00,27.054,R,ugm-3 (Ref.eq),44.47704,R,ugm-3,57.22179,R,ugm-3,125.41897,R,ugm-3
10-01-2020,20:00,28.020,R,ugm-3 (Ref.eq),35.90361,R,ugm-3,51.92190,R,ugm-3,106.97333,R,ugm-3
10-01-2020,21:00,26.087,R,ugm-3 (Ref.eq),20.14196,R,ugm-3,39.14121,R,ugm-3,70.02512,R,ugm-3
10-01-2020,22:00,18.358,R,ugm-3 (Ref.eq),12.72912,R,ugm-3,28.13353,R,ugm-3,47.65124,R,ugm-3
10-01-2020,23:00,16.425,R,ugm-3 (Ref.eq),11.00695,R,ugm-3,15.63051,R,ugm-3,32.50759,R,ugm-3
10-01-2020,24:00,15.459,R,ugm-3 (Ref.eq),11.26902,R,ugm-3,17.73364,R,ugm-3,35.01256,R,ugm-3
11-01-2020,01:00,16.425,R,ugm-3 (Ref.eq),3.95427,R,ugm-3,9.46651,R,ugm-3,15.52965,R,ugm-3
11-01-2020,02:00,5.797,R,ugm-3 (Ref.eq),2.80303,R,ugm-3,7.80607,R,ugm-3,12.10399,R,ugm-3
11-01-2020,03:00,8.696,R,ugm-3 (Ref.eq),1.83949,R,ugm-3,3.74534,R,ugm-3,6.56584,R,ugm-3
11-01-2020,04:00,7.730,R,ugm-3 (Ref.eq),0.90097,R,ugm-3,3.01479,R,ugm-3,4.39626,R,ugm-3
11-01-2020,05:00,4.831,R,ugm-3 (Ref.eq),0.82589,R,ugm-3,2.84444,R,ugm-3,4.11079,R,ugm-3
11-01-2020,06:00,2.899,R,ugm-3 (Ref.eq),2.70292,R,ugm-3,6.01836,R,ugm-3,10.16278,R,ugm-3
11-01-2020,07:00,3.865,R,ugm-3 (Ref.eq),3.04079,R,ugm-3,3.67329,R,ugm-3,8.33577,R,ugm-3
11-01-2020,08:00,5.797,R,ugm-3 (Ref.eq),2.21489,R,ugm-3,4.02613,R,ugm-3,7.42226,R,ugm-3
11-01-2020,09:00,5.797,R,ugm-3 (Ref.eq),6.45698,R,ugm-3,9.56859,R,ugm-3,19.46915,R,ugm-3
11-01-2020,10:00,4.831,R,ugm-3 (Ref.eq),6.53206,R,ugm-3,10.70954,R,ugm-3,20.72523,R,ugm-3
11-01-2020,11:00,8.696,R,ugm-3 (Ref.eq),8.70941,R,ugm-3,15.87803,R,ugm-3,29.23227,R,ugm-3
11-01-2020,12:00,7.730,R,ugm-3 (Ref.eq),9.68547,R,ugm-3,11.69800,R,ugm-3,26.54884,R,ugm-3
11-01-2020,13:00,8.696,R,ugm-3 (Ref.eq),10.17349,R,ugm-3,16.25947,R,ugm-3,31.85861,R,ugm-3
11-01-2020,14:00,16.425,R,ugm-3 (Ref.eq),13.28936,R,ugm-3,15.53557,R,ugm-3,35.91230,R,ugm-3
11-01-2020,15:00,9.662,R,ugm-3 (Ref.eq),10.96185,R,ugm-3,20.36045,R,ugm-3,37.16838,R,ugm-3
11-01-2020,16:00,8.696,R,ugm-3 (Ref.eq),10.88676,R,ugm-3,18.70565,R,ugm-3,35.39846,R,ugm-3
11-01-2020,17:00,8.696,R,ugm-3 (Ref.eq),9.31006,R,ugm-3,15.29961,R,ugm-3,29.57484,R,ugm-3
11-01-2020,18:00,8.696,R,ugm-3 (Ref.eq),8.44663,R,ugm-3,10.85700,R,ugm-3,23.80832,R,ugm-3
11-01-2020,19:00,5.797,R,ugm-3 (Ref.eq),9.38514,R,ugm-3,10.33147,R,ugm-3,24.72182,R,ugm-3
11-01-2020,20:00,6.763,R,ugm-3 (Ref.eq),5.70617,R,ugm-3,10.77691,R,ugm-3,19.52624,R,ugm-3